Location: Mococo
(38.0255°N, 122.1161°W)
Time: 03:17:12
(UTC+00:00)

Meteor 2-16 Rocket - Pass Details

Date: 13 February 2026
Orbit: 941 x 956 km, 82.6° (Epoch: 7 March)

Event Time Altitude Azimuth Distance (km) Brightness Sun altitude
Rises 12:34:46 0° 354° (N) 3,616 7.5 -29.3°
Reaches altitude 10° 12:37:16 10° 355° (N) 2,670 6.8 -28.8°
Maximum altitude 12:43:23 79° 83° (E) 968 4.4 -27.6°
Drops below altitude 10° 12:49:29 10° 170° (S) 2,663 6.8 -26.4°
Sets 12:51:58 0° 171° (S) 3,606 7.5 -25.9°
